TimeEST,TemperatureF,Dew PointF,Humidity,Sea Level PressureIn,VisibilityMPH,Wind Direction,Wind SpeedMPH,Gust SpeedMPH,PrecipitationIn,Events,Conditions,WindDirDegrees,DateUTC
12:53 AM,62.1,60.1,93,30.25,-9999.0,ESE,5.8,-,N/A,,Unknown,110,2012-12-04 05:53:00
1:53 AM,59.0,57.9,96,30.25,-9999.0,ESE,3.5,-,N/A,,Unknown,120,2012-12-04 06:53:00
2:53 AM,59.0,57.0,93,30.25,-9999.0,ESE,4.6,-,N/A,,Unknown,110,2012-12-04 07:53:00
3:53 AM,57.9,57.0,97,30.24,-9999.0,ESE,3.5,-,N/A,,Unknown,110,2012-12-04 08:53:00
4:53 AM,57.9,57.0,97,30.24,-9999.0,ESE,4.6,-,N/A,,Unknown,110,2012-12-04 09:53:00
5:53 AM,57.9,57.0,97,30.26,-9999.0,ESE,3.5,-,N/A,,Unknown,110,2012-12-04 10:53:00
6:53 AM,59.0,57.0,93,30.27,-9999.0,SE,4.6,-,N/A,,Unknown,130,2012-12-04 11:53:00
7:53 AM,57.9,55.9,93,30.30,-9999.0,Calm,Calm,-,N/A,,Unknown,0,2012-12-04 12:53:00
8:53 AM,63.0,60.1,90,30.31,-9999.0,SE,4.6,-,N/A,,Unknown,130,2012-12-04 13:53:00
9:53 AM,70.0,61.0,73,30.32,-9999.0,Variable,4.6,-,N/A,,Unknown,0,2012-12-04 14:53:00
10:53 AM,73.9,59.0,59,30.32,-9999.0,SSE,6.9,-,N/A,,Unknown,160,2012-12-04 15:53:00
11:53 AM,75.0,57.0,53,30.30,-9999.0,Variable,6.9,-,N/A,,Unknown,0,2012-12-04 16:53:00
12:53 PM,77.0,55.0,47,30.25,-9999.0,Variable,3.5,-,N/A,,Unknown,0,2012-12-04 17:53:00
1:53 PM,79.0,53.1,40,30.23,-9999.0,SSE,9.2,-,N/A,,Unknown,160,2012-12-04 18:53:00
2:53 PM,79.0,51.1,38,30.22,-9999.0,NE,8.1,-,N/A,,Unknown,50,2012-12-04 19:53:00
3:53 PM,77.0,52.0,42,30.22,-9999.0,ESE,6.9,-,N/A,,Unknown,120,2012-12-04 20:53:00
4:53 PM,73.0,55.9,55,30.22,-9999.0,WSW,6.9,-,N/A,,Unknown,240,2012-12-04 21:53:00
5:53 PM,66.9,55.0,66,30.22,-9999.0,WSW,3.5,-,N/A,,Unknown,240,2012-12-04 22:53:00
6:53 PM,63.0,55.0,75,30.22,-9999.0,Calm,Calm,-,N/A,,Unknown,0,2012-12-04 23:53:00
7:53 PM,63.0,55.0,75,30.23,-9999.0,Calm,Calm,-,N/A,,Unknown,0,2012-12-05 00:53:00
8:53 PM,59.0,55.0,87,30.22,-9999.0,Calm,Calm,-,N/A,,Unknown,0,2012-12-05 01:53:00
9:53 PM,57.9,54.0,87,30.23,-9999.0,Calm,Calm,-,N/A,,Unknown,0,2012-12-05 02:53:00
10:53 PM,55.9,53.1,90,30.23,-9999.0,ENE,3.5,-,N/A,,Unknown,70,2012-12-05 03:53:00
11:53 PM,61.0,54.0,78,30.22,-9999.0,East,4.6,-,N/A,,Unknown,100,2012-12-05 04:53:00